Regional Weather Roundup
Issued by NWS Columbia, SC

Home | Current Version | Previous Version | Text Only | Print | Product List | Glossary On
Versions: 1 2 3 4 5 6 7 8 9 10 11 12 13 14 15 16 17 18 19 20 21 22 23 24 25 26 27
000
ASUS42 KCAE 170110
RWRCAE
REGIONAL WEATHER ROUNDUP
NATIONAL WEATHER SERVICE COLUMBIA SC
900 PM EDT WED APR 16 2014

NOTE: "FAIR" INDICATES FEW OR NO CLOUDS BELOW 12,000 FEET WITH NO
SIGNIFICANT WEATHER AND/OR OBSTRUCTIONS TO VISIBILITY.

NOT ALL STATIONS ARE QUALITY CONTROLLED BY THE NATIONAL
WEATHER SERVICE. USE DATA WITH CAUTION...ESPECIALLY
DEWPOINT OBSERVATIONS.

SCZ001>056-GAZ040-063>065-077-170200-
...UPSTATE SOUTH CAROLINA...

CITY           SKY/WX    TMP DP  RH WIND       PRES   REMARKS
ANDERSON       CLEAR     48  32  53 E5        30.32R
LIBERTY        FAIR      50  32  49 MISG      30.31R
SPARTANBURG    FAIR      50  32  50 CALM      30.34R
CLEMSON        CLEAR     52  28  39 E5        30.32R
GREENVILLE     CLEAR     52  26  36 E7        30.34R
GREENWOOD      CLEAR     47  35  63 NE3       30.34R
GREER          CLEAR     46  34  62 E7        30.32R
ROCK HILL      CLEAR     44  32  62 CALM      30.36R
CHESTER        FAIR      50  34  53 E5        30.36R
LAURENS        FAIR      50  32  50 E5        30.35R


...CENTRAL SOUTH CAROLINA...

CITY           SKY/WX    TMP DP  RH WIND       PRES   REMARKS
COLUMBIA APT   CLEAR     53  31  42 E6        30.34R
COLUMBIA OWENS CLEAR     53  29  39 VRB3      30.36R
DARLINGTON     CLEAR     46  36  66 E5        30.39R
FLORENCE       CLEAR     46  33  60 NE7       30.37R
MCENTIRE ANGB  CLEAR     48  32  53 NE6       30.36R
ORANGEBURG     CLEAR     50  33  52 NE5       30.34R
SUMTER SHAW    CLEAR     44  32  62 NE5       30.35R
NEWBERRY       FAIR      46  34  61 NE6       30.37R
AIKEN          FAIR      50  34  53 CALM      30.35R
BARNWELL       FAIR      52  34  50 NE5       30.33R
MANNING        FAIR      46  34  61 NE3       30.35R
CAMDEN         FAIR      48  32  53 CALM      30.37R
LANCASTER      FAIR      41  39  93 CALM      30.36R
WINNSBORO      FAIR      48  32  53 E6        30.34R


...EASTERN AND COASTAL SOUTH CAROLINA...

CITY           SKY/WX    TMP DP  RH WIND       PRES   REMARKS
MYRTLE BEACH   CLEAR     52  37  58 E9        30.37R
N MYRTLE BCH   CLEAR     49  35  58 NE10      30.38R
CONWAY         FAIR      45  41  87 CALM      30.38R
MARION         FAIR      46  32  57 NE6       30.38R
HARTSVILLE     FAIR      46  30  53 E3        30.38R
FLORENCE       CLEAR     46  33  60 NE7       30.37R
DARLINGTON     CLEAR     46  36  66 E5        30.39R
CHARLESTON APT CLEAR     51  38  60 E8        30.35R
MOUNT PLEASANT FAIR     N/A N/A N/A CALM      30.35R
WALTERBORO     CLEAR     48  41  76 E7        30.35R
BEAUFORT       CLEAR     53  42  66 SE10      30.33R


...EASTERN GEORGIA...

CITY           SKY/WX    TMP DP  RH WIND       PRES   REMARKS
AUGUSTA BUSH F CLEAR     49  31  49 E6        30.32R
AUGUSTA DANIEL CLEAR     56  30  37 E7        30.32R
THOMSON        CLEAR     46  40  77 CALM      30.35R
WASHINGTON     FAIR      48  34  57 E6        30.31R
CLAXTON        FAIR      54  46  76 E5        30.30R
SYLVANIA       CLEAR     52  40  65 E5        30.32R
STATESBORO     CLEAR     53  37  54 SE3       30.30R
SAVANNAH       CLEAR     53  41  63 E9        30.32R


...SOUTHERN NORTH CAROLINA...

CITY           SKY/WX    TMP DP  RH WIND       PRES   REMARKS
CHARLOTTE      CLEAR     51  25  36 E5        30.36R
MONROE         CLEAR     49  28  44 E5        30.35R
WADESBORO      CLEAR     44  36  72 CALM      30.38R
ROCKINGHAM       N/A     48  31  51 E3        30.38R
RUTHERFORDTON  CLEAR     48  27  44 E6        30.36R
ASHEVILLE      CLEAR     46  24  42 S6        30.32R

$$



USA.gov is the U.S. government's official web portal to all federal, state and local government web resources and services.